STARLINK-1190, 45083

Orbit data source: Space-Track

STARLINK-1190, 45083 is a payload satellite owned by SpaceX/Seattle (US) in LEO that was launched on Wed, 29 Jan 2020 UTC via an FALCON 9 launch vehicle from the Air Force Eastern Test Range (AFETR). Payload-class satellites include a variety of spacecraft equipped with specific instruments for various scientific and technological missions. These include communications satellites like Starlink; space stations such as the ISS; scientific satellites like the Hubble; Earth observation satellites from companies like Planet Labs, Umbra, and HawkEye 360; GPS; miniature CubeSats for education and research; and military/defense satellites.

Not visible in the next 10 days
Identifier
45083, 2020-006AR
Orbit
LEO
Country
Flag of USUS
Related business
Manufacturer
SpaceX/Seattle
Mission
Partially operational Commercial Communications
Bus & Motor
STARLINK, Unknown motor
Mass
260 kg wet, ~248 kg dry
Launch date (UTC)
2020-01-29 (6 years ago)
Launch vehicle
FALCON 9
Launch site
Air Force Eastern Test Range (AFETR)
Object type
Payload
Rocket body
Debris
Shape & HBR
Box + 1 Pan, 10.1 m
Radar Cross Section
13.562 m², Large (>1 m²)

Expand to show TLE details & history
Last TLE update: 6 hours ago

TLE from 6 hours ago
0 STARLINK-1190
1 45083U 20006AR  25310.33335648  .00336364  54986-4  90667-3 0  9996
2 45083  53.0388  47.5094 0004279 314.5703 235.1265 15.93841288  6079
Epoch: 2025-11-06T08:00Z
TLE epoch observation values (Epoch: 2025-11-06T08:00:01.999Z)
Latitude
-7.8317°
Longitude
67.61506°
Altitude
295.435 km
Speed
7.73 km/s
True Right ascension
15h 33m 39s
True Declination
-7° 46' 56"
Sunlit
Object was in daylight at epoch
Visualization orbit readout
Latitude
Unknown
Longitude
Unknown
Altitude
Unknown
Speed
Unknown
Apparent Right ascension
Unknown
Apparent Declination
Unknown
Sunlit
N/A
Visualization observer readout
Local Sidereal Time
09:52:00
Azimuth
Unknown
Elevation
Unknown
Doppler factor
Unknown
Orbital elements
Apogee altitude
294.682 km
Perigee altitude
288.974 km
Semi-major axis
6,669.965 km
Eccentricity
0.00043
Inclination
53.0388°
RAAN
47.5094°
Arg. of periapsis
314.5703°
True anomaly
235.08628°
Mean anomaly
235.1265°
Eccentric anomaly
235.10639°
Mean motion
3.98435 °/min
Orbital period
90.35 mins
BSTAR
0.00090667
Loading maneuver chart data...
Computing Atmospheric mass density...
Loading historical data...
Loading historical data...
Loading historical data...
Loading historical data...
Loading historical data...
Loading historical data...
Loading historical data...

Documentation

Showing up to 5 results
|